Weather History for KFTG - December, 2012

Change the Weather History Date:

Monday, December 24, 2012

  Actual Average (KDEN) Record (KDEN)
Temperature  
Mean Temperature 27 °F 30 °F  
Max Temperature 35 °F 42 °F 70 °F (1955)
Min Temperature 19 °F 17 °F -25 °F (1876)
Degree Days  
Heating Degree Days 38 35  
Month to date heating degree days 842  
Since 1 July heating degree days 2224  
Cooling Degree Days 0 0  
Month to date cooling degree days 0  
Year to date cooling degree days 769  
Moisture  
Dew Point 20 °F    
Average Humidity 75    
Maximum Humidity 93    
Minimum Humidity 55    
Precipitation  
Precipitation 0.00 in 0.01 in 2.00 in (1982)
Month to date precipitation 0.28  
Year to date precipitation 14.23  
Snow  
Snow 0.00 in - - ()
Month to date snowfall  
Since 1 July snowfall  
Snow Depth -    
Sea Level Pressure  
Sea Level Pressure 29.80 in    
Wind  
Wind Speed 10 mph (ESE)    
Max Wind Speed 18 mph    
Max Gust Speed 23 mph    
Visibility 7 miles    
Events Snow    
T = Trace of Precipitation, MM = Missing Value Source: NWS Daily Summary

Daily Weather History Graph

Daily Weather History Graph

Search for Another Location

Airport or City:

Trip Planner

Search our weather history database for the weather conditions in past years. The results will help you decide how hot, cold, wet, or windy it might be!

Date:

Astronomy

Dec. 24, 2012 Rise Set
Actual Time 7:17 AM MST 4:38 PM MST
Civil Twilight 6:46 AM MST 5:09 PM MST
Nautical Twilight 6:13 AM MST 5:43 PM MST
Astronomical Twilight 5:40 AM MST 6:16 PM MST
Moon 2:07 PM MST (12/24) 3:58 AM MST (12/24)
Length of Visible Light 10h 22m
Length of Day
9h 21m
Waxing Gibbous, 89% of the Moon is Illuminated
Dec 24
Waxing Gibbous
Dec 28
Full
Jan 4
Last Quarter
Jan 11
New
Jan 18
First Quarter

Hourly Weather History & Observations

Time (MST) Temp. Windchill Dew Point Humidity Pressure Visibility Wind Dir Wind Speed Gust Speed Precip Events Conditions
12:02 AM 32.0 °F 21.6 °F 21.2 °F 64% 29.91 in 10.0 mi SSE 15.0 mph - N/A   Clear
12:22 AM 32.0 °F 20.5 °F 21.2 °F 64% 29.90 in 10.0 mi SSE 18.4 mph 23.0 mph N/A   Clear
12:42 AM 32.0 °F 23.6 °F 19.4 °F 60% 29.89 in 10.0 mi SSE 10.4 mph - N/A   Clear
1:02 AM 30.2 °F 21.9 °F 19.4 °F 64% 29.89 in 10.0 mi SE 9.2 mph - N/A   Clear
1:22 AM 28.4 °F 18.0 °F 19.4 °F 69% 29.87 in 10.0 mi ESE 12.7 mph - N/A   Clear
1:41 AM 28.4 °F 17.5 °F 19.4 °F 69% 29.86 in 10.0 mi SE 13.8 mph - N/A   Clear
2:02 AM 30.2 °F 19.8 °F 19.4 °F 64% 29.86 in 10.0 mi SSE 13.8 mph - N/A   Clear
2:22 AM 28.4 °F 23.3 °F 19.4 °F 69% 29.86 in 10.0 mi SSE 4.6 mph - N/A   Clear
2:42 AM 26.6 °F 21.2 °F 17.6 °F 69% 29.85 in 10.0 mi East 4.6 mph - N/A   Clear
3:02 AM 26.6 °F 19.1 °F 17.6 °F 69% 29.84 in 10.0 mi SE 6.9 mph - N/A   Clear
3:22 AM 28.4 °F 24.6 °F 17.6 °F 64% 29.82 in 10.0 mi South 3.5 mph - N/A   Clear
3:42 AM 30.2 °F - 17.6 °F 60% 29.81 in 10.0 mi Calm Calm - N/A   Clear
4:02 AM 32.0 °F 25.6 °F 19.4 °F 60% 29.80 in 10.0 mi SW 6.9 mph - N/A   Clear
4:21 AM 32.0 °F 24.2 °F 17.6 °F 55% 29.80 in 10.0 mi WSW 9.2 mph - N/A   Clear
4:42 AM 30.2 °F 25.4 °F 19.4 °F 64% 29.78 in 10.0 mi WSW 4.6 mph - N/A   Clear
5:02 AM 23.0 °F 17.0 °F 19.4 °F 86% 29.78 in 10.0 mi SW 4.6 mph - N/A   Clear
5:22 AM 23.0 °F 15.8 °F 17.6 °F 80% 29.78 in 10.0 mi WNW 5.8 mph - N/A   Clear
5:43 AM 24.8 °F 20.5 °F 19.4 °F 80% 29.78 in 10.0 mi West 3.5 mph - N/A   Clear
6:03 AM 26.6 °F 22.6 °F 19.4 °F 74% 29.78 in 10.0 mi West 3.5 mph - N/A   Clear
6:23 AM 26.6 °F - 19.4 °F 74% 29.78 in 10.0 mi Calm Calm - N/A   Clear
6:43 AM 23.0 °F - 19.4 °F 86% 29.78 in 10.0 mi Calm Calm - N/A   Clear
6:57 AM 23.0 °F 15.8 °F 17.6 °F 80% 29.78 in 10.0 mi WSW 5.8 mph - N/A   Clear
7:47 AM 24.8 °F 17.9 °F 17.6 °F 74% 29.78 in 40.0 mi SSW 5.8 mph - N/A   Mostly Cloudy
8:47 AM 24.8 °F 17.9 °F 19.4 °F 80% 29.77 in 40.0 mi SW 5.8 mph - N/A   Mostly Cloudy
10:47 AM 32.0 °F 25.6 °F 19.4 °F 60% 29.79 in 40.0 mi West 6.9 mph - N/A   Mostly Cloudy
11:48 AM 32.0 °F 26.4 °F 19.4 °F 60% 29.76 in 50.0 mi WNW 5.8 mph - N/A   Overcast
12:48 PM 33.8 °F 30.8 °F 19.4 °F 56% 29.71 in 50.0 mi WNW 3.5 mph - N/A   Mostly Cloudy
1:48 PM 35.6 °F 30.7 °F 21.2 °F 56% 29.68 in 50.0 mi NE 5.8 mph - N/A   Mostly Cloudy
2:48 PM 35.6 °F 30.7 °F 21.2 °F 56% 29.68 in 30.0 mi NNE 5.8 mph - N/A   Mostly Cloudy
4:48 PM 32.0 °F 26.4 °F 23.0 °F 69% 29.71 in 20.0 mi North 5.8 mph - N/A   Overcast
5:48 PM 32.0 °F 27.5 °F 23.0 °F 69% 29.73 in 10.0 mi NE 4.6 mph - N/A   Overcast
6:48 PM 26.6 °F 16.2 °F 23.0 °F 86% 29.73 in 10.0 mi East 11.5 mph - N/A   Overcast
7:48 PM 26.6 °F 16.2 °F 23.0 °F 86% 29.76 in 2.0 mi East 11.5 mph - N/A Snow Light Snow
8:03 PM 26.6 °F 15.7 °F 23.0 °F 86% 29.77 in 2.5 mi East 12.7 mph - N/A Snow Light Snow
8:23 PM 26.6 °F 15.2 °F 23.0 °F 86% 29.77 in 2.0 mi East 13.8 mph - N/A Snow Light Snow
8:42 PM 24.8 °F 14.0 °F 23.0 °F 93% 29.78 in 1.8 mi East 11.5 mph 20.7 mph N/A Snow Light Snow
9:02 PM 24.8 °F 12.9 °F 23.0 °F 93% 29.79 in 1.2 mi East 13.8 mph - N/A Snow Light Snow
9:22 PM 24.8 °F 13.4 °F 23.0 °F 93% 29.80 in 1.0 mi East 12.7 mph - N/A Snow Snow
9:42 PM 23.0 °F 11.1 °F 21.2 °F 93% 29.81 in 1.2 mi ENE 12.7 mph - N/A Snow Light Snow
10:02 PM 23.0 °F 10.6 °F 21.2 °F 93% 29.82 in 1.2 mi East 13.8 mph - N/A Snow Light Snow
10:22 PM 21.2 °F 8.9 °F 19.4 °F 93% 29.83 in 1.0 mi East 12.7 mph - N/A Snow Light Snow
10:42 PM 21.2 °F 8.3 °F 19.4 °F 93% 29.84 in 1.2 mi ENE 13.8 mph 19.6 mph N/A Snow Light Snow
11:02 PM 19.4 °F 6.6 °F 17.6 °F 93% 29.85 in 1.2 mi East 12.7 mph 16.1 mph N/A Snow Light Snow
11:22 PM 19.4 °F 6.0 °F 17.6 °F 93% 29.87 in 1.0 mi East 13.8 mph - N/A Snow Snow
11:42 PM 19.4 °F 6.6 °F 15.8 °F 86% 29.88 in 1.0 mi East 12.7 mph - N/A Snow Snow